Regional Weather Roundup
Issued by NWS Goodland, KS

Home | Current Version | Previous Version | Graphics & Text | Print | Product List | Glossary On
Versions: 1 2 3 4 5 6 7 8 9 10 11 12 13 14 15 16 17 18 19 20 21 22 23 24 25 26 27 28 29 30 31 32 33 34 35 36 37 38 39 40 41 42 43 44 45 46 47 48 49 50
000
ASUS43 KGLD 280159
RWRGLD

GOODLAND FORECAST AREA HOURLY WEATHER ROUNDUP
NATIONAL WEATHER SERVICE GOODLAND KS
800 PM MDT MON JUL 27 2015

...OFFICIAL OBSERVATIONS...

CITY           SKY/WX    TMP DP  RH WIND       PRES   REMARKS
GOODLAND KS    PTCLDY    83  69  62 SE13      29.76F
HILL CITY KS   CLEAR     87  68  52 SE14      29.75F
IMPERIAL NEB   CLEAR     87  67  51 S14       29.72S
MCCOOK NEB     CLEAR     89  68  49 S18       29.72S
AKRON CO         N/A    N/A N/A N/A MISG      29.79R
BURLINGTON CO  PTCLDY    81  64  56 S10       29.80R
LIMON CO       MOCLDY    79  53  40 S8        29.89R
$$

...UNOFFICIAL OBSERVATIONS...

CITY           SKY/WX    TMP DP  RH WIND       PRES   REMARKS
COLBY KS       CLEAR     86  73  66 SE15      29.77F
LENORA KS        N/A     84  32  15 MISG        N/A
NORTON KS      CLEAR     88  64  45 SE16      29.75S
SHARON SPRINGS   N/A     84  68  58 N9          N/A
KIT CARSON CO    N/A     88  55  32 MISG        N/A
YUMA CO          N/A     86  63  45 CALM        N/A
$$


USA.gov is the U.S. government's official web portal to all federal, state and local government web resources and services.